Year,Month,Day,Hour,Minute,Value (Times are PST for temperature in C)
2016,04,19,00,00,15.20
2016,04,19,00,01,15.20
2016,04,19,00,02,15.20
2016,04,19,00,03,15.20
2016,04,19,00,04,15.20
2016,04,19,00,05,15.20
2016,04,19,00,06,15.20
2016,04,19,00,07,15.20
2016,04,19,00,08,15.20
2016,04,19,00,09,15.20
2016,04,19,00,10,15.20
2016,04,19,00,11,15.20
2016,04,19,00,12,15.20
2016,04,19,00,13,15.20
2016,04,19,00,14,15.20
2016,04,19,00,15,15.20
2016,04,19,00,16,15.20
2016,04,19,00,17,15.10
2016,04,19,00,18,15.10
2016,04,19,00,19,15.10
2016,04,19,00,20,15.10
2016,04,19,00,21,15.00
2016,04,19,00,22,15.00
2016,04,19,00,23,15.00
2016,04,19,00,24,14.90
2016,04,19,00,25,14.90
2016,04,19,00,26,14.90
2016,04,19,00,27,14.90
2016,04,19,00,28,14.90
2016,04,19,00,29,14.90
2016,04,19,00,30,14.80
2016,04,19,00,31,14.80
2016,04,19,00,32,14.80
2016,04,19,00,33,14.80
2016,04,19,00,34,14.70
2016,04,19,00,35,14.70
2016,04,19,00,36,14.70
2016,04,19,00,37,14.70
2016,04,19,00,38,14.70
2016,04,19,00,39,14.60
2016,04,19,00,40,14.60
2016,04,19,00,41,14.60
2016,04,19,00,42,14.60
2016,04,19,00,43,14.50
2016,04,19,00,44,14.50
2016,04,19,00,45,14.50
2016,04,19,00,46,14.50
2016,04,19,00,47,14.50
2016,04,19,00,48,14.50
2016,04,19,00,49,14.50
2016,04,19,00,50,14.50
2016,04,19,00,51,14.50
2016,04,19,00,52,14.40
2016,04,19,00,53,14.40
2016,04,19,00,54,14.40
2016,04,19,00,55,14.40
2016,04,19,00,56,14.40
2016,04,19,00,57,14.40
2016,04,19,00,58,14.40
2016,04,19,00,59,14.40
2016,04,19,01,00,14.40
2016,04,19,01,01,14.40
2016,04,19,01,02,14.40
2016,04,19,01,03,14.40
2016,04,19,01,04,14.40
2016,04,19,01,05,14.50
2016,04,19,01,06,14.50
2016,04,19,01,07,14.60
2016,04,19,01,08,14.60
2016,04,19,01,09,14.60
2016,04,19,01,10,14.70
2016,04,19,01,11,14.70
2016,04,19,01,12,14.60
2016,04,19,01,13,14.60
2016,04,19,01,14,14.60
2016,04,19,01,15,14.60
2016,04,19,01,16,14.60
2016,04,19,01,17,14.60
2016,04,19,01,18,14.50
2016,04,19,01,19,14.50
2016,04,19,01,20,14.50
2016,04,19,01,21,14.40
2016,04,19,01,22,14.40
2016,04,19,01,23,14.40
2016,04,19,01,24,14.30
2016,04,19,01,25,14.30
2016,04,19,01,26,14.30
2016,04,19,01,27,14.20
2016,04,19,01,28,14.20
2016,04,19,01,29,14.20
2016,04,19,01,30,14.10
2016,04,19,01,31,14.10
2016,04,19,01,32,14.10
2016,04,19,01,33,14.00
2016,04,19,01,34,14.00
2016,04,19,01,35,14.00
2016,04,19,01,36,13.90
2016,04,19,01,37,13.90
2016,04,19,01,38,13.80
2016,04,19,01,39,13.80
2016,04,19,01,40,13.80
2016,04,19,01,41,13.70
2016,04,19,01,42,13.70
2016,04,19,01,43,13.70
2016,04,19,01,44,13.70
2016,04,19,01,45,13.60
2016,04,19,01,46,13.60
2016,04,19,01,47,13.60
2016,04,19,01,48,13.60
2016,04,19,01,49,13.60
2016,04,19,01,50,13.50
2016,04,19,01,51,13.50
2016,04,19,01,52,13.50
2016,04,19,01,53,13.40
2016,04,19,01,54,13.40
2016,04,19,01,55,13.40
2016,04,19,01,56,13.40
2016,04,19,01,57,13.40
2016,04,19,01,58,13.40
2016,04,19,01,59,13.30
2016,04,19,02,00,13.30
2016,04,19,02,01,13.30
2016,04,19,02,02,13.30
2016,04,19,02,03,13.20
2016,04,19,02,04,13.20
2016,04,19,02,05,13.20
2016,04,19,02,06,13.10
2016,04,19,02,07,13.10
2016,04,19,02,08,13.10
2016,04,19,02,09,13.10
2016,04,19,02,10,13.00
2016,04,19,02,11,13.00
2016,04,19,02,12,12.90
2016,04,19,02,13,12.90
2016,04,19,02,14,12.90
2016,04,19,02,15,12.80
2016,04,19,02,16,12.80
2016,04,19,02,17,12.80
2016,04,19,02,18,12.80
2016,04,19,02,19,12.70
2016,04,19,02,20,12.70
2016,04,19,02,21,12.70
2016,04,19,02,22,12.70
2016,04,19,02,23,12.70
2016,04,19,02,24,12.70
2016,04,19,02,25,12.60
2016,04,19,02,26,12.60
2016,04,19,02,27,12.60
2016,04,19,02,28,12.60
2016,04,19,02,29,12.60
2016,04,19,02,30,12.60
2016,04,19,02,31,12.50
2016,04,19,02,32,12.50
2016,04,19,02,33,12.50
2016,04,19,02,34,12.50
2016,04,19,02,35,12.50
2016,04,19,02,36,12.40
2016,04,19,02,37,12.40
2016,04,19,02,38,12.40
2016,04,19,02,39,12.40
2016,04,19,02,40,12.40
2016,04,19,02,41,12.40
2016,04,19,02,42,12.30
2016,04,19,02,43,12.30
2016,04,19,02,44,12.30
2016,04,19,02,45,12.30
2016,04,19,02,46,12.30
2016,04,19,02,47,12.30
2016,04,19,02,48,12.30
2016,04,19,02,49,12.30
2016,04,19,02,50,12.30
2016,04,19,02,51,12.30
2016,04,19,02,52,12.30
2016,04,19,02,53,12.30
2016,04,19,02,54,12.30
2016,04,19,02,55,12.30
2016,04,19,02,56,12.30
2016,04,19,02,57,12.30
2016,04,19,02,58,12.20
2016,04,19,02,59,12.20
2016,04,19,03,00,12.20
2016,04,19,03,01,12.20
2016,04,19,03,02,12.20
2016,04,19,03,03,12.20
2016,04,19,03,04,12.20
2016,04,19,03,05,12.20
2016,04,19,03,06,12.20
2016,04,19,03,07,12.20
2016,04,19,03,08,12.20
2016,04,19,03,09,12.20
2016,04,19,03,10,12.20
2016,04,19,03,11,12.20
2016,04,19,03,12,12.20
2016,04,19,03,13,12.20
2016,04,19,03,14,12.20
2016,04,19,03,15,12.20
2016,04,19,03,16,12.20
2016,04,19,03,17,12.10
2016,04,19,03,18,12.10
2016,04,19,03,19,12.10
2016,04,19,03,20,12.10
2016,04,19,03,21,12.10
2016,04,19,03,22,12.10
2016,04,19,03,23,12.10
2016,04,19,03,24,12.10
2016,04,19,03,25,12.00
2016,04,19,03,26,12.00
2016,04,19,03,27,12.00
2016,04,19,03,28,12.00
2016,04,19,03,29,12.10
2016,04,19,03,30,12.10
2016,04,19,03,31,12.10
2016,04,19,03,32,12.10
2016,04,19,03,33,12.10
2016,04,19,03,34,12.20
2016,04,19,03,35,12.20
2016,04,19,03,36,12.20
2016,04,19,03,37,12.20
2016,04,19,03,38,12.20
2016,04,19,03,39,12.20
2016,04,19,03,40,12.20
2016,04,19,03,41,12.10
2016,04,19,03,42,12.10
2016,04,19,03,43,12.10
2016,04,19,03,44,12.10
2016,04,19,03,45,12.10
2016,04,19,03,46,12.10
2016,04,19,03,47,12.00
2016,04,19,03,48,12.00
2016,04,19,03,49,12.00
2016,04,19,03,50,12.00
2016,04,19,03,51,11.90
2016,04,19,03,52,11.90
2016,04,19,03,53,11.90
2016,04,19,03,54,11.90
2016,04,19,03,55,11.90
2016,04,19,03,56,11.90
2016,04,19,03,57,11.90
2016,04,19,03,58,11.90
2016,04,19,03,59,11.80
2016,04,19,04,00,11.80
2016,04,19,04,01,11.80
2016,04,19,04,02,11.80
2016,04,19,04,03,11.80
2016,04,19,04,04,11.80
2016,04,19,04,05,11.80
2016,04,19,04,06,11.80
2016,04,19,04,07,11.80
2016,04,19,04,08,11.70
2016,04,19,04,09,11.70
2016,04,19,04,10,11.70
2016,04,19,04,11,11.70
2016,04,19,04,12,11.70
2016,04,19,04,13,11.70
2016,04,19,04,14,11.60
2016,04,19,04,15,11.60
2016,04,19,04,16,11.60
2016,04,19,04,17,11.60
2016,04,19,04,18,11.60
2016,04,19,04,19,11.50
2016,04,19,04,20,11.50
2016,04,19,04,21,11.50
2016,04,19,04,22,11.50
2016,04,19,04,23,11.50
2016,04,19,04,24,11.50
2016,04,19,04,25,11.50
2016,04,19,04,26,11.50
2016,04,19,04,27,11.40
2016,04,19,04,28,11.40
2016,04,19,04,29,11.40
2016,04,19,04,30,11.40
2016,04,19,04,31,11.40
2016,04,19,04,32,11.40
2016,04,19,04,33,11.30
2016,04,19,04,34,11.30
2016,04,19,04,35,11.30
2016,04,19,04,36,11.30
2016,04,19,04,37,11.30
2016,04,19,04,38,11.30
2016,04,19,04,39,11.30
2016,04,19,04,40,11.30
2016,04,19,04,41,11.30
2016,04,19,04,42,11.30
2016,04,19,04,43,11.30
2016,04,19,04,44,11.30
2016,04,19,04,45,11.20
2016,04,19,04,46,11.20
2016,04,19,04,47,11.20
2016,04,19,04,48,11.20
2016,04,19,04,49,11.20
2016,04,19,04,50,11.20
2016,04,19,04,51,11.20
2016,04,19,04,52,11.20
2016,04,19,04,53,11.20
2016,04,19,04,54,11.20
2016,04,19,04,55,11.20
2016,04,19,04,56,11.20
2016,04,19,04,57,11.20
2016,04,19,04,58,11.20
2016,04,19,04,59,11.20
2016,04,19,05,00,11.10
2016,04,19,05,01,11.10
2016,04,19,05,02,11.10
2016,04,19,05,03,11.10
2016,04,19,05,04,11.10
2016,04,19,05,05,11.10
2016,04,19,05,06,11.10
2016,04,19,05,07,11.10
2016,04,19,05,08,11.10
2016,04,19,05,09,11.10
2016,04,19,05,10,11.10
2016,04,19,05,11,11.10
2016,04,19,05,12,11.10
2016,04,19,05,13,11.10
2016,04,19,05,14,11.10
2016,04,19,05,15,11.10
2016,04,19,05,16,11.10
2016,04,19,05,17,11.10
2016,04,19,05,18,11.10
2016,04,19,05,19,11.20
2016,04,19,05,20,11.20
2016,04,19,05,21,11.20
2016,04,19,05,22,11.30
2016,04,19,05,23,11.30
2016,04,19,05,24,11.40
2016,04,19,05,25,11.40
2016,04,19,05,26,11.50
2016,04,19,05,27,11.50
2016,04,19,05,28,11.60
2016,04,19,05,29,11.60
2016,04,19,05,30,11.60
2016,04,19,05,31,11.60
2016,04,19,05,32,11.70
2016,04,19,05,33,11.80
2016,04,19,05,34,11.80
2016,04,19,05,35,11.80
2016,04,19,05,36,11.90
2016,04,19,05,37,11.90
2016,04,19,05,38,12.00
2016,04,19,05,39,12.00
2016,04,19,05,40,12.10
2016,04,19,05,41,12.10
2016,04,19,05,42,12.10
2016,04,19,05,43,12.20
2016,04,19,05,44,12.20
2016,04,19,05,45,12.20
2016,04,19,05,46,12.20
2016,04,19,05,47,12.20
2016,04,19,05,48,12.20
2016,04,19,05,49,12.20
2016,04,19,05,50,12.10
2016,04,19,05,51,12.20
2016,04,19,05,52,12.20
2016,04,19,05,53,12.20
2016,04,19,05,54,12.20
2016,04,19,05,55,12.20
2016,04,19,05,56,12.20
2016,04,19,05,57,12.20
2016,04,19,05,58,12.20
2016,04,19,05,59,12.30
2016,04,19,06,00,12.30
2016,04,19,06,01,12.30
2016,04,19,06,02,12.20
2016,04,19,06,03,12.30
2016,04,19,06,04,12.20
2016,04,19,06,05,12.20
2016,04,19,06,06,12.20
2016,04,19,06,07,12.20
2016,04,19,06,08,12.20
2016,04,19,06,09,12.20
2016,04,19,06,10,12.30
2016,04,19,06,11,12.30
2016,04,19,06,12,12.30
2016,04,19,06,13,12.30
2016,04,19,06,14,12.30
2016,04,19,06,15,12.30
2016,04,19,06,16,12.20
2016,04,19,06,17,12.20
2016,04,19,06,18,12.20
2016,04,19,06,19,12.20
2016,04,19,06,20,12.20
2016,04,19,06,21,12.20
2016,04,19,06,22,12.20
2016,04,19,06,23,12.20
2016,04,19,06,24,12.20
2016,04,19,06,25,12.10
2016,04,19,06,26,12.10
2016,04,19,06,27,12.10
2016,04,19,06,28,12.10
2016,04,19,06,29,12.10
2016,04,19,06,30,12.10
2016,04,19,06,31,12.00
2016,04,19,06,32,12.00
2016,04,19,06,33,12.00
2016,04,19,06,34,12.00
2016,04,19,06,35,12.00
2016,04,19,06,36,12.00
2016,04,19,06,37,12.00
2016,04,19,06,38,12.00
2016,04,19,06,39,12.00
2016,04,19,06,40,12.00
2016,04,19,06,41,12.00
2016,04,19,06,42,12.00
2016,04,19,06,43,12.00
2016,04,19,06,44,12.00
2016,04,19,06,45,12.00
2016,04,19,06,46,12.00
2016,04,19,06,47,12.00
2016,04,19,06,48,12.00
2016,04,19,06,49,12.00
2016,04,19,06,50,12.00
2016,04,19,06,51,12.00
2016,04,19,06,52,12.00
2016,04,19,06,53,12.00
2016,04,19,06,54,12.00
2016,04,19,06,55,12.00
2016,04,19,06,56,12.00
2016,04,19,06,57,12.00
2016,04,19,06,58,12.00
2016,04,19,06,59,12.00
2016,04,19,07,00,12.00
2016,04,19,07,01,12.00
2016,04,19,07,02,12.00
2016,04,19,07,03,12.00
2016,04,19,07,04,12.00
2016,04,19,07,05,12.00
2016,04,19,07,06,12.00
2016,04,19,07,07,12.00
2016,04,19,07,08,11.90
2016,04,19,07,09,11.90
2016,04,19,07,10,12.00
2016,04,19,07,11,12.00
2016,04,19,07,12,12.00
2016,04,19,07,13,12.00
2016,04,19,07,14,12.00
2016,04,19,07,15,12.00
2016,04,19,07,16,12.00
2016,04,19,07,17,12.00
2016,04,19,07,18,12.00
2016,04,19,07,19,12.00
2016,04,19,07,20,12.00
2016,04,19,07,21,12.00
2016,04,19,07,22,12.00
2016,04,19,07,23,12.00
2016,04,19,07,24,12.00
2016,04,19,07,25,12.00
2016,04,19,07,26,12.00
2016,04,19,07,27,12.00
2016,04,19,07,28,12.00
2016,04,19,07,29,12.00
2016,04,19,07,30,12.00
2016,04,19,07,31,12.00
2016,04,19,07,32,12.10
2016,04,19,07,33,12.10
2016,04,19,07,34,12.10
2016,04,19,07,35,12.10
2016,04,19,07,36,12.10
2016,04,19,07,37,12.20
2016,04,19,07,38,12.20
2016,04,19,07,39,12.20
2016,04,19,07,40,12.20
2016,04,19,07,41,12.30
2016,04,19,07,42,12.30
2016,04,19,07,43,12.30
2016,04,19,07,44,12.30
2016,04,19,07,45,12.40
2016,04,19,07,46,12.40
2016,04,19,07,47,12.40
2016,04,19,07,48,12.40
2016,04,19,07,49,12.50
2016,04,19,07,50,12.60
2016,04,19,07,51,12.60
2016,04,19,07,52,12.60
2016,04,19,07,53,12.60
2016,04,19,07,54,12.70
2016,04,19,07,55,12.70
2016,04,19,07,56,12.80
2016,04,19,07,57,12.80
2016,04,19,07,58,12.90
2016,04,19,07,59,12.90
2016,04,19,08,00,13.00
2016,04,19,08,01,13.10
2016,04,19,08,02,13.20
2016,04,19,08,03,13.30
2016,04,19,08,04,13.30
2016,04,19,08,05,13.40
2016,04,19,08,06,13.50
2016,04,19,08,07,13.50
2016,04,19,08,08,13.60
2016,04,19,08,09,13.70
2016,04,19,08,10,13.80
2016,04,19,08,11,13.80
2016,04,19,08,12,13.90
2016,04,19,08,13,13.90
2016,04,19,08,14,14.00
2016,04,19,08,15,14.10
2016,04,19,08,16,14.10
2016,04,19,08,17,14.20
2016,04,19,08,18,14.30
2016,04,19,08,19,14.40
2016,04,19,08,20,14.50
2016,04,19,08,21,14.60
2016,04,19,08,22,14.70
2016,04,19,08,23,14.80
2016,04,19,08,24,14.80
2016,04,19,08,25,14.90
2016,04,19,08,26,15.00
2016,04,19,08,27,15.10
2016,04,19,08,28,15.20
2016,04,19,08,29,15.20
2016,04,19,08,30,15.30
2016,04,19,08,31,15.40
2016,04,19,08,32,15.50
2016,04,19,08,33,15.60
2016,04,19,08,34,15.70
2016,04,19,08,35,15.80
2016,04,19,08,36,15.90
2016,04,19,08,37,16.00
2016,04,19,08,38,16.10
2016,04,19,08,39,16.10
2016,04,19,08,40,16.20
2016,04,19,08,41,16.30
2016,04,19,08,42,16.40
2016,04,19,08,43,16.50
2016,04,19,08,44,16.60
2016,04,19,08,45,16.70
2016,04,19,08,46,16.80
2016,04,19,08,47,16.90
2016,04,19,08,48,17.00
2016,04,19,08,49,17.00
2016,04,19,08,50,17.10
2016,04,19,08,51,17.20
2016,04,19,08,52,17.20
2016,04,19,08,53,17.30
2016,04,19,08,54,17.30
2016,04,19,08,55,17.30
2016,04,19,08,56,17.40
2016,04,19,08,57,17.40
2016,04,19,08,58,17.40
2016,04,19,08,59,17.50
2016,04,19,09,00,17.60
2016,04,19,09,01,17.60
2016,04,19,09,02,17.60
2016,04,19,09,03,17.70
2016,04,19,09,04,17.70
2016,04,19,09,05,17.80
2016,04,19,09,06,17.80
2016,04,19,09,07,17.80
2016,04,19,09,08,17.90
2016,04,19,09,09,18.00
2016,04,19,09,10,18.00
2016,04,19,09,11,18.10
2016,04,19,09,12,18.20
2016,04,19,09,13,18.30
2016,04,19,09,14,18.40
2016,04,19,09,15,18.40
2016,04,19,09,16,18.50
2016,04,19,09,17,18.50
2016,04,19,09,18,18.60
2016,04,19,09,19,18.60
2016,04,19,09,20,18.70
2016,04,19,09,21,18.70
2016,04,19,09,22,18.80
2016,04,19,09,23,18.80
2016,04,19,09,24,18.80
2016,04,19,09,25,18.90
2016,04,19,09,26,18.90
2016,04,19,09,27,18.90
2016,04,19,09,28,19.00
2016,04,19,09,29,19.10
2016,04,19,09,30,19.10
2016,04,19,09,31,19.10
2016,04,19,09,32,19.20
2016,04,19,09,33,19.20
2016,04,19,09,34,19.30
2016,04,19,09,35,19.30
2016,04,19,09,36,19.30
2016,04,19,09,37,19.40
2016,04,19,09,38,19.40
2016,04,19,09,39,19.50
2016,04,19,09,40,19.50
2016,04,19,09,41,19.60
2016,04,19,09,42,19.60
2016,04,19,09,43,19.70
2016,04,19,09,44,19.70
2016,04,19,09,45,19.70
2016,04,19,09,46,19.80
2016,04,19,09,47,19.80
2016,04,19,09,48,19.80
2016,04,19,09,49,19.80
2016,04,19,09,50,19.80
2016,04,19,09,51,19.80
2016,04,19,09,52,19.90
2016,04,19,09,53,20.00
2016,04,19,09,54,20.00
2016,04,19,09,55,20.10
2016,04,19,09,56,20.10
2016,04,19,09,57,20.10
2016,04,19,09,58,20.10
2016,04,19,09,59,20.10
2016,04,19,10,00,20.10
2016,04,19,10,01,20.20
2016,04,19,10,02,20.20
2016,04,19,10,03,20.30
2016,04,19,10,04,20.30
2016,04,19,10,05,20.30
2016,04,19,10,06,20.40
2016,04,19,10,07,20.40
2016,04,19,10,08,20.40
2016,04,19,10,09,20.40
2016,04,19,10,10,20.40
2016,04,19,10,11,20.50
2016,04,19,10,12,20.50
2016,04,19,10,13,20.60
2016,04,19,10,14,20.60
2016,04,19,10,15,20.60
2016,04,19,10,16,20.60
2016,04,19,10,17,20.60
2016,04,19,10,18,20.60
2016,04,19,10,19,20.60
2016,04,19,10,20,20.60
2016,04,19,10,21,20.60
2016,04,19,10,22,20.60
2016,04,19,10,23,20.60
2016,04,19,10,24,20.70
2016,04,19,10,25,20.70
2016,04,19,10,26,20.80
2016,04,19,10,27,20.80
2016,04,19,10,28,20.80
2016,04,19,10,29,20.90
2016,04,19,10,30,20.90
2016,04,19,10,31,20.90
2016,04,19,10,32,21.00
2016,04,19,10,33,21.10
2016,04,19,10,34,21.10
2016,04,19,10,35,21.10
2016,04,19,10,36,21.10
2016,04,19,10,37,21.20
2016,04,19,10,38,21.10
2016,04,19,10,39,21.10
2016,04,19,10,40,21.10
2016,04,19,10,41,21.10
2016,04,19,10,42,21.10
2016,04,19,10,43,21.10
2016,04,19,10,44,21.10
2016,04,19,10,45,21.10
2016,04,19,10,46,21.10
2016,04,19,10,47,21.10
2016,04,19,10,48,21.10
2016,04,19,10,49,21.20
2016,04,19,10,50,21.20
2016,04,19,10,51,21.30
2016,04,19,10,52,21.30
2016,04,19,10,53,21.40
2016,04,19,10,54,21.40
2016,04,19,10,55,21.40
2016,04,19,10,56,21.40
2016,04,19,10,57,21.40
2016,04,19,10,58,21.50
2016,04,19,10,59,21.50
2016,04,19,11,00,21.60
2016,04,19,11,01,21.60
2016,04,19,11,02,21.60
2016,04,19,11,03,21.60
2016,04,19,11,04,21.60
2016,04,19,11,05,21.70
2016,04,19,11,06,21.70
2016,04,19,11,07,21.70
2016,04,19,11,08,21.80
2016,04,19,11,09,21.80
2016,04,19,11,10,21.80
2016,04,19,11,11,21.80
2016,04,19,11,12,21.80
2016,04,19,11,13,21.80
2016,04,19,11,14,21.80
2016,04,19,11,15,21.80
2016,04,19,11,16,21.90
2016,04,19,11,17,21.90
2016,04,19,11,18,21.90
2016,04,19,11,19,22.00
2016,04,19,11,20,22.00
2016,04,19,11,21,22.10
2016,04,19,11,22,22.10
2016,04,19,11,23,22.20
2016,04,19,11,24,22.20
2016,04,19,11,25,22.20
2016,04,19,11,26,22.20
2016,04,19,11,27,22.20
2016,04,19,11,28,22.10
2016,04,19,11,29,22.10
2016,04,19,11,30,22.10
2016,04,19,11,31,22.20
2016,04,19,11,32,22.20
2016,04,19,11,33,22.20
2016,04,19,11,34,22.20
2016,04,19,11,35,22.20
2016,04,19,11,36,22.30
2016,04,19,11,37,22.30
2016,04,19,11,38,22.30
2016,04,19,11,39,22.40
2016,04,19,11,40,22.40
2016,04,19,11,41,22.40
2016,04,19,11,42,22.50
2016,04,19,11,43,22.50
2016,04,19,11,44,22.60
2016,04,19,11,45,22.60
2016,04,19,11,46,22.70
2016,04,19,11,47,22.70
2016,04,19,11,48,22.70
2016,04,19,11,49,22.70
2016,04,19,11,50,22.70
2016,04,19,11,51,22.80
2016,04,19,11,52,22.80
2016,04,19,11,53,22.80
2016,04,19,11,54,22.80
2016,04,19,11,55,22.90
2016,04,19,11,56,22.90
2016,04,19,11,57,22.90
2016,04,19,11,58,22.90
2016,04,19,11,59,22.90
2016,04,19,12,00,22.90
2016,04,19,12,01,23.00
2016,04,19,12,02,23.00
2016,04,19,12,03,23.00
2016,04,19,12,04,23.00
2016,04,19,12,05,23.00
2016,04,19,12,06,23.00
2016,04,19,12,07,23.10
2016,04,19,12,08,23.10
2016,04,19,12,09,23.10
2016,04,19,12,10,23.00
2016,04,19,12,11,22.90
2016,04,19,12,12,22.90
2016,04,19,12,13,22.90
2016,04,19,12,14,23.00
2016,04,19,12,15,23.00
2016,04,19,12,16,23.00
2016,04,19,12,17,23.10
2016,04,19,12,18,23.10
2016,04,19,12,19,23.10
2016,04,19,12,20,23.10
2016,04,19,12,21,23.10
2016,04,19,12,22,23.20
2016,04,19,12,23,23.20
2016,04,19,12,24,23.30
2016,04,19,12,25,23.30
2016,04,19,12,26,23.40
2016,04,19,12,27,23.40
2016,04,19,12,28,23.40
2016,04,19,12,29,23.50
2016,04,19,12,30,23.50
2016,04,19,12,31,23.60
2016,04,19,12,32,23.60
2016,04,19,12,33,23.60
2016,04,19,12,34,23.50
2016,04,19,12,35,23.40
2016,04,19,12,36,23.40
2016,04,19,12,37,23.40
2016,04,19,12,38,23.50
2016,04,19,12,39,23.40
2016,04,19,12,40,23.40
2016,04,19,12,41,23.40
2016,04,19,12,42,23.30
2016,04,19,12,43,23.20
2016,04,19,12,44,23.10
2016,04,19,12,45,23.10
2016,04,19,12,46,23.00
2016,04,19,12,47,23.00
2016,04,19,12,48,22.90
2016,04,19,12,49,22.90
2016,04,19,12,50,23.00
2016,04,19,12,51,23.00
2016,04,19,12,52,23.10
2016,04,19,12,53,23.10
2016,04,19,12,54,23.20
2016,04,19,12,55,23.20
2016,04,19,12,56,23.30
2016,04,19,12,57,23.30
2016,04,19,12,58,23.30
2016,04,19,12,59,23.40
2016,04,19,13,00,23.40
2016,04,19,13,01,23.40
2016,04,19,13,02,23.40
2016,04,19,13,03,23.30
2016,04,19,13,04,23.20
2016,04,19,13,05,23.20
2016,04,19,13,06,23.10
2016,04,19,13,07,23.10
2016,04,19,13,08,23.00
2016,04,19,13,09,22.90
2016,04,19,13,10,22.80
2016,04,19,13,11,22.80
2016,04,19,13,12,22.70
2016,04,19,13,13,22.70
2016,04,19,13,14,22.60
2016,04,19,13,15,22.60
2016,04,19,13,16,22.60
2016,04,19,13,17,22.60
2016,04,19,13,18,22.60
2016,04,19,13,19,22.60
2016,04,19,13,20,22.60
2016,04,19,13,21,22.60
2016,04,19,13,22,22.50
2016,04,19,13,23,22.60
2016,04,19,13,24,22.60
2016,04,19,13,25,22.60
2016,04,19,13,26,22.70
2016,04,19,13,27,22.70
2016,04,19,13,28,22.70
2016,04,19,13,29,22.70
2016,04,19,13,30,22.80
2016,04,19,13,31,22.80
2016,04,19,13,32,22.80
2016,04,19,13,33,22.90
2016,04,19,13,34,22.90
2016,04,19,13,35,22.80
2016,04,19,13,36,22.80
2016,04,19,13,37,22.80
2016,04,19,13,38,22.80
2016,04,19,13,39,22.80
2016,04,19,13,40,22.70
2016,04,19,13,41,22.70
2016,04,19,13,42,22.70
2016,04,19,13,43,22.60
2016,04,19,13,44,22.50
2016,04,19,13,45,22.50
2016,04,19,13,46,22.40
2016,04,19,13,47,22.30
2016,04,19,13,48,22.30
2016,04,19,13,49,22.30
2016,04,19,13,50,22.30
2016,04,19,13,51,22.30
2016,04,19,13,52,22.30
2016,04,19,13,53,22.30
2016,04,19,13,54,22.30
2016,04,19,13,55,22.30
2016,04,19,13,56,22.30
2016,04,19,13,57,22.20
2016,04,19,13,58,22.20
2016,04,19,13,59,22.20
2016,04,19,14,00,22.20
2016,04,19,14,01,22.20
2016,04,19,14,02,22.30
2016,04,19,14,03,22.30
2016,04,19,14,04,22.30
2016,04,19,14,05,22.40
2016,04,19,14,06,22.40
2016,04,19,14,07,22.40
2016,04,19,14,08,22.40
2016,04,19,14,09,22.30
2016,04,19,14,10,22.20
2016,04,19,14,11,22.00
2016,04,19,14,12,22.00
2016,04,19,14,13,21.90
2016,04,19,14,14,21.90
2016,04,19,14,15,21.90
2016,04,19,14,16,21.90
2016,04,19,14,17,21.90
2016,04,19,14,18,21.90
2016,04,19,14,19,21.90
2016,04,19,14,20,22.00
2016,04,19,14,21,22.00
2016,04,19,14,22,22.00
2016,04,19,14,23,21.90
2016,04,19,14,24,21.90
2016,04,19,14,25,21.90
2016,04,19,14,26,21.80
2016,04,19,14,27,21.80
2016,04,19,14,28,21.80
2016,04,19,14,29,21.80
2016,04,19,14,30,21.70
2016,04,19,14,31,21.70
2016,04,19,14,32,21.70
2016,04,19,14,33,21.70
2016,04,19,14,34,21.70
2016,04,19,14,35,21.70
2016,04,19,14,36,21.60
2016,04,19,14,37,21.60
2016,04,19,14,38,21.60
2016,04,19,14,39,21.60
2016,04,19,14,40,21.60
2016,04,19,14,41,21.60
2016,04,19,14,42,21.60
2016,04,19,14,43,21.60
2016,04,19,14,44,21.60
2016,04,19,14,45,21.60
2016,04,19,14,46,21.60
2016,04,19,14,47,21.60
2016,04,19,14,48,21.60
2016,04,19,14,49,21.60
2016,04,19,14,50,21.60
2016,04,19,14,51,21.60
2016,04,19,14,52,21.60
2016,04,19,14,53,21.60
2016,04,19,14,54,21.70
2016,04,19,14,55,21.70
2016,04,19,14,56,21.70
2016,04,19,14,57,21.80
2016,04,19,14,58,21.80
2016,04,19,14,59,21.90
2016,04,19,15,00,22.00
2016,04,19,15,01,22.10
2016,04,19,15,02,22.20
2016,04,19,15,03,22.30
2016,04,19,15,04,22.30
2016,04,19,15,05,22.50
2016,04,19,15,06,22.60
2016,04,19,15,07,22.70
2016,04,19,15,08,22.80
2016,04,19,15,09,22.80
2016,04,19,15,10,22.80
2016,04,19,15,11,22.90
2016,04,19,15,12,22.90
2016,04,19,15,13,22.90
2016,04,19,15,14,22.90
2016,04,19,15,15,22.90
2016,04,19,15,16,23.00
2016,04,19,15,17,23.00
2016,04,19,15,18,23.10
2016,04,19,15,19,23.20
2016,04,19,15,20,23.20
2016,04,19,15,21,23.20
2016,04,19,15,22,23.20
2016,04,19,15,23,23.20
2016,04,19,15,24,23.30
2016,04,19,15,25,23.30
2016,04,19,15,26,23.30
2016,04,19,15,27,23.30
2016,04,19,15,28,23.30
2016,04,19,15,29,23.30
2016,04,19,15,30,23.40
2016,04,19,15,31,23.40
2016,04,19,15,32,23.40
2016,04,19,15,33,23.40
2016,04,19,15,34,23.40
2016,04,19,15,35,23.30
2016,04,19,15,36,23.40
2016,04,19,15,37,23.40
2016,04,19,15,38,23.40
2016,04,19,15,39,23.50
2016,04,19,15,40,23.50
2016,04,19,15,41,23.40
2016,04,19,15,42,23.40
2016,04,19,15,43,23.30
2016,04,19,15,44,23.30
2016,04,19,15,45,23.30
2016,04,19,15,46,23.20
2016,04,19,15,47,23.20
2016,04,19,15,48,23.10
2016,04,19,15,49,23.10
2016,04,19,15,50,23.10
2016,04,19,15,51,23.10
2016,04,19,15,52,23.20
2016,04,19,15,53,23.20
2016,04,19,15,54,23.30
2016,04,19,15,55,23.30
2016,04,19,15,56,23.30
2016,04,19,15,57,23.30
2016,04,19,15,58,23.30
2016,04,19,15,59,23.30
2016,04,19,16,00,23.40
2016,04,19,16,01,23.50
2016,04,19,16,02,23.50
2016,04,19,16,03,23.60
2016,04,19,16,04,23.60
2016,04,19,16,05,23.70
2016,04,19,16,06,23.70
2016,04,19,16,07,23.80
2016,04,19,16,08,23.80
2016,04,19,16,09,23.80
2016,04,19,16,10,23.80
2016,04,19,16,11,23.90
2016,04,19,16,12,23.80
2016,04,19,16,13,23.80
2016,04,19,16,14,23.80
2016,04,19,16,15,23.90
2016,04,19,16,16,23.90
2016,04,19,16,17,23.90
2016,04,19,16,18,23.90
2016,04,19,16,19,23.80
2016,04,19,16,20,23.80
2016,04,19,16,21,23.80
2016,04,19,16,22,23.80
2016,04,19,16,23,23.70
2016,04,19,16,24,23.70
2016,04,19,16,25,23.70
2016,04,19,16,26,23.70
2016,04,19,16,27,23.70
2016,04,19,16,28,23.70
2016,04,19,16,29,23.70
2016,04,19,16,30,23.70
2016,04,19,16,31,23.70
2016,04,19,16,32,23.70
2016,04,19,16,33,23.70
2016,04,19,16,34,23.70
2016,04,19,16,35,23.80
2016,04,19,16,36,23.80
2016,04,19,16,37,23.80
2016,04,19,16,38,23.80
2016,04,19,16,39,23.80
2016,04,19,16,40,23.70
2016,04,19,16,41,23.70
2016,04,19,16,42,23.60
2016,04,19,16,43,23.60
2016,04,19,16,44,23.60
2016,04,19,16,45,23.60
2016,04,19,16,46,23.60
2016,04,19,16,47,23.60
2016,04,19,16,48,23.70
2016,04,19,16,49,23.70
2016,04,19,16,50,23.70
2016,04,19,16,51,23.70
2016,04,19,16,52,23.70
2016,04,19,16,53,23.70
2016,04,19,16,54,23.70
2016,04,19,16,55,23.70
2016,04,19,16,56,23.70
2016,04,19,16,57,23.70
2016,04,19,16,58,23.70
2016,04,19,16,59,23.70
2016,04,19,17,00,23.70
2016,04,19,17,01,23.70
2016,04,19,17,02,23.70
2016,04,19,17,03,23.70
2016,04,19,17,04,23.70
2016,04,19,17,05,23.60
2016,04,19,17,06,23.60
2016,04,19,17,07,23.60
2016,04,19,17,08,23.50
2016,04,19,17,09,23.50
2016,04,19,17,10,23.50
2016,04,19,17,11,23.40
2016,04,19,17,12,23.40
2016,04,19,17,13,23.30
2016,04,19,17,14,23.30
2016,04,19,17,15,23.30
2016,04,19,17,16,23.30
2016,04,19,17,17,23.30
2016,04,19,17,18,23.30
2016,04,19,17,19,23.30